Weather History for KLVK - April, 2013

Change the Weather History Date:

Tuesday, April 23, 2013

  Actual Average Record
Temperature  
Mean Temperature 69 °F 58 °F  
Max Temperature 84 °F 71 °F 93 °F (1946)
Min Temperature 53 °F 46 °F 32 °F (1964)
Degree Days  
Heating Degree Days 0 7  
Month to date heating degree days 105 214  
Since 1 July heating degree days 2318 2578  
Cooling Degree Days 4 0  
Month to date cooling degree days 14 0  
Year to date cooling degree days 14 1  
Growing Degree Days 20 (Base 50)    
Moisture  
Dew Point 30 °F    
Average Humidity 42    
Maximum Humidity 72    
Minimum Humidity 11    
Precipitation  
Precipitation 0.00 in 0.03 in 0.45 in (1983)
Month to date precipitation 0.40 0.84  
Year to date precipitation 1.96 9.08  
Since 1 July precipitation 10.25  
Sea Level Pressure  
Sea Level Pressure 29.88 in    
Wind  
Wind Speed 5 mph (NW)    
Max Wind Speed 17 mph    
Max Gust Speed 22 mph    
Visibility 10 miles    
Events      
T = Trace of Precipitation, MM = Missing Value Source: NWS Daily Summary

Daily Weather History Graph

Daily Weather History Graph

Search for Another Location

Airport or City:

Trip Planner

Search our weather history database for the weather conditions in past years. The results will help you decide how hot, cold, wet, or windy it might be!

Date:

Astronomy

Apr. 23, 2013 Rise Set
Actual Time 6:21 AM PDT 7:50 PM PDT
Civil Twilight 5:53 AM PDT 8:18 PM PDT
Nautical Twilight 5:20 AM PDT 8:51 PM PDT
Astronomical Twilight 4:45 AM PDT 9:26 PM PDT
Moon 5:53 PM PDT (4/23) 4:49 AM PDT (4/23)
Length of Visible Light 14h 24m
Length of Day
13h 29m
Waxing Gibbous, 94% of the Moon is Illuminated
Apr 23
Waxing Gibbous
Apr 25
Full
May 2
Last Quarter
May 9
New
May 17
First Quarter

Hourly Weather History & Observations

Time (PDT) Temp. Dew Point Humidity Pressure Visibility Wind Dir Wind Speed Gust Speed Precip Events Conditions
12:53 AM 60.1 °F 46.0 °F 60% 29.88 in 9.0 mi Calm Calm - N/A   Clear
1:53 AM 57.9 °F 45.0 °F 62% 29.87 in 10.0 mi West 3.5 mph - N/A   Clear
3:53 AM 69.1 °F 21.9 °F 17% 29.87 in 10.0 mi Variable 4.6 mph - N/A   Clear
4:53 AM 66.9 °F 21.0 °F 17% 29.88 in 10.0 mi Variable 4.6 mph - N/A   Clear
5:53 AM 64.9 °F 19.9 °F 18% 29.89 in 10.0 mi Variable 3.5 mph - N/A   Clear
6:53 AM 64.9 °F 18.0 °F 16% 29.91 in 10.0 mi Calm Calm - N/A   Clear
7:53 AM 66.0 °F 19.9 °F 17% 29.93 in 10.0 mi Calm Calm - N/A   Clear
8:53 AM 69.1 °F 19.0 °F 15% 29.94 in 10.0 mi NNE 4.6 mph - N/A   Clear
9:53 AM 71.1 °F 18.0 °F 13% 29.94 in 10.0 mi NE 16.1 mph 21.9 mph N/A   Clear
10:53 AM 73.9 °F 21.0 °F 14% 29.93 in 10.0 mi Variable 5.8 mph 16.1 mph N/A   Clear
12:53 PM 79.0 °F 21.0 °F 12% 29.91 in 10.0 mi Calm Calm - N/A   Clear
1:53 PM 80.1 °F 21.0 °F 11% 29.89 in 10.0 mi NNW 3.5 mph - N/A   Clear
2:53 PM 81.0 °F 23.0 °F 12% 29.87 in 10.0 mi SE 8.1 mph - N/A   Clear
3:53 PM 82.9 °F 23.0 °F 11% 29.85 in 10.0 mi East 5.8 mph - N/A   Clear
4:41 PM 84.2 °F 24.8 °F 11% 29.85 in 10.0 mi WNW 5.8 mph - N/A   Clear
4:53 PM 82.9 °F 26.1 °F 13% 29.83 in 10.0 mi West 5.8 mph - N/A   Clear
5:53 PM 80.1 °F 37.0 °F 21% 29.84 in 10.0 mi WNW 12.7 mph - N/A   Clear
6:53 PM 73.0 °F 37.9 °F 28% 29.83 in 10.0 mi West 11.5 mph - N/A   Clear
7:53 PM 66.9 °F 42.1 °F 40% 29.85 in 10.0 mi West 8.1 mph - N/A   Clear
8:53 PM 66.0 °F 44.1 °F 45% 29.86 in 10.0 mi Calm Calm - N/A   Clear
9:53 PM 60.1 °F 46.0 °F 60% 29.89 in 10.0 mi NW 6.9 mph - N/A   Clear
10:53 PM 55.9 °F 46.0 °F 69% 29.90 in 10.0 mi NW 8.1 mph - N/A   Clear
11:53 PM 54.0 °F 45.0 °F 72% 29.89 in 10.0 mi NW 5.8 mph - N/A   Clear